Tracking 18980 objects as of 18-Feb-2018
HD Live streaming from Space Station
objects crossing your sky now

FENGYUN 1C DEB

Track FENGYUN 1C DEB now!
10-day predictions


NORAD ID: 31546
Int'l Code: 1999-025BYM
Perigee: 781.0 km
Apogee: 1,042.2 km
Inclination: 98.2 °
Period: 103.1 minutes
Semi major axis: 7282 km
RCS: 0.0099 m2 (small)
Launch date: May 10, 1999
Source: People's Republic of China (PRC)
Launch site: Taiyaun Space Center, China (TSC)

Note: This is SATELLITE DEBRIS
aabbcc
Your satellite tracking list
Your tracking list is empty




NASA's NSSDC Master Catalog

Two Line Element Set (TLE):
1 31546U 99025BYM 18044.83948859  .00000712  00000-0  47080-3 0  9997
2 31546  98.2307 356.3593 0179308 316.1698  42.5354 13.96930854547474
Source of the keplerian elements: AFSPC